Погода в Бахрейне

Бахрейн     26°16′08″N   50°37′34″E
темп.,
°C
ветер,
м/с
пор.,
м/с
влажн.,
%
обл.,
%
осадки,
мм/ч
давл.,
гПа
погр.,
м
7 мая, пт
пт700:00+28ю45600 0.0 100749
03:00+28ююз33580 0.0 100725
06:00+27ююз33620 0.0 100828
09:00+27юв55620 0.0 101075
12:00+28вюв44590 0.0 100961
15:00+29вюв56540 0.0 100759
18:00+28в67640 0.0 100749
21:00+28юв710640 0.0 1008110
8 мая, сб
сб800:00+27юв610670 0.0 1007143
03:00+27ю44650 0.0 100740
06:00+27ю44650 0.0 100955
09:00+27ююв56640 0.0 101079
12:00+28юв56610 0.0 100875
15:00+28св56640 0.0 100690
18:00+28св55680 0.0 100756
21:00+28всв44650 0.0 100827
9 мая, вс
вс900:00+28св11630 0.0 100711
03:00+28с22560 0.0 100611
06:00+28ссз33570 0.0 100824
09:00+28з44584 0.0 100944
12:00+28ссз44560 0.0 100848
15:00+29с44590 0.0 100741
18:00+29ссв33580 0.0 100613
21:00+28с34580 0.0 100720
10 мая, пн
пн1000:00+29ссз22570 0.0 100611
03:00+29зсз33550 0.0 100611
06:00+28зюз56620 0.0 100878
09:00+29з45540 0.0 100851
12:00+30с22510 0.0 100713
15:00+30св33540 0.0 100532
18:00+29св33600 0.0 100512
21:00+29св22570 0.0 100611
11 мая, вт
вт1100:00+29зюз11580 0.0 100511
03:00+29з33470 0.0 100512
06:00+28зюз44620 0.0 100640
09:00+29зсз45530 0.0 100745
12:00+29с335033 0.0 100725
15:00+30св445437 0.0 100529
18:00+30всв33510 0.0 100414
21:00+29вюв11530 0.0 100511